CAPE
1503 2597 3387 3715 3530 3317 3145 2919 2427 2064 1892 1824 1826 1698 1553 1683 1822 1689 1454 1202 1278 1243 1219 1375 1398 1391 1240 554 393 1261 1248 802 1056 730 689 1015 914 703 801 536 294 599 329
1715 2557 3369 3574 3399 3391 3549 3480 2953 2337 1985 1817 1913 1837 1640 1822 1751 1642 1564 1328 1406 1481 1259 1135 1403 1096 779 549 213 772 1289 1313 1443 1277 649 491 220 412 1397 430 0 628 1071
1703 2447 2723 3282 3400 3375 3588 3610 3078 2537 1901 1846 1980 1999 1772 1778 1730 1547 1709 1545 1610 1528 1422 1302 1415 1067 917 789 741 891 1202 993 1617 735 419 0 3 681 36 281 647 125 999
1466 1883 2426 3205 3398 3265 3581 3629 3363 2598 1837 2056 2064 1979 1850 1672 1569 1731 1613 1626 1489 1464 1596 1517 1143 916 853 1191 1013 1145 1111 826 769 950 169 0 0 653 1101 849 615 314 505
782 1434 2334 3308 3182 2740 3124 3358 3247 2864 2517 2235 2017 2027 1720 1796 1823 1821 1631 1682 1382 1513 1557 1560 977 547 1295 972 1050 1021 901 907 690 651 699 0 96 0 879 1119 658 381 666
503 1394 2908 3121 2660 2598 2716 2884 3053 2837 3013 2645 2091 1873 1818 2003 1899 1742 1539 1589 1464 1586 1642 1213 581 791 1200 1102 974 919 861 864 753 577 28 16 510 699 729 854 972 405 635
1071 1442 2424 3058 3099 2996 2926 2611 2787 2870 2821 2296 2032 1798 1784 1656 1972 1794 1682 1672 1390 1700 1557 767 621 1331 969 995 1020 1000 1082 866 550 300 14 0 614 1553 1341 1258 749 168 511
1261 1400 1720 2640 2851 2539 2323 2438 2445 2396 2271 2125 1850 1652 1523 1480 1610 1553 1780 1779 1423 1649 1449 1167 1441 1333 1548 1317 1281 1121 773 588 711 310 148 0 708 1260 1054 1046 427 410 849
815 1188 1721 1975 1789 1954 2029 2016 2071 1965 1977 2205 1733 2053 1919 1787 1856 1660 1768 1704 1573 1383 1675 1043 1482 1699 1585 796 775 885 774 950 654 453 109 86 1410 1389 994 1004 348 138 163
187 0 946 1342 1521 1537 1606 2462 2428 2101 2105 1922 1554 1573 1796 1560 1597 1622 1911 1906 1444 1630 1610 1598 1049 1548 1368 999 848 854 960 1020 512 390 476 111 1389 864 123 749 840 1108 604
630 165 47 1159 1246 1363 1458 1759 2663 1931 1859 1924 1495 1733 1699 1119 1233 1394 1493 1620 1432 1567 1587 1400 1186 1493 1468 1173 1175 1201 1087 440 157 206 336 1311 1761 1817 656 244 351 285 884
906 788 555 381 1072 1006 1340 1424 1457 1250 1350 1363 1485 1252 1275 1260 1112 1415 1543 1970 1591 1486 1668 1532 2079 1780 1322 1046 1029 1165 845 418 99 335 245 1480 1712 2161 989 1001 829 943 327
1119 820 709 271 268 279 538 940 1311 1269 1083 898 1021 1095 971 912 1019 936 1034 1271 1293 1549 1156 1617 1712 1515 1183 718 604 592 495 175 85 338 666 1650 2017 2133 1399 1529 1209 796 759
958 962 925 719 318 140 129 477 844 964 810 959 1039 1149 908 1056 802 805 790 986 1199 1193 992 987 1050 1123 831 726 446 340 263 179 302 670 742 1772 1867 2019 1829 1818 1614 1210 991
1176 1080 1120 802 650 588 780 369 880 662 781 964 628 978 889 874 892 901 718 879 997 898 1013 902 792 670 654 672 694 668 348 332 845 389 634 2067 1985 1925 1809 1744 2001 1652 1553
1750 1513 1388 1039 789 691 561 612 476 493 642 894 802 802 986 981 1056 903 765 734 792 1132 746 664 664 504 700 777 646 554 586 800 509 607 815 1363 2169 1924 1786 2253 2362 2301 2084
1889 1944 1669 1356 1075 1133 867 502 291 548 535 520 769 795 962 782 785 1052 848 687 895 1035 900 723 770 784 687 687 607 570 838 731 408 466 773 752 1737 2175 2004 1751 2107 2305 2252
1852 1740 1559 1515 1326 870 675 741 856 788 871 816 792 556 187 762 798 742 697 904 815 898 849 606 603 782 429 783 751 748 740 583 797 707 675 798 979 759 1962 1994 2010 2149 2260
2031 1803 1527 1265 1037 818 934 1100 1012 678 487 458 651 386 548 590 992 675 652 646 762 616 894 832 640 666 749 452 582 512 755 806 586 632 619 611 769 765 575 1107 1584 1729 1268
2129 1843 1510 1264 1098 1161 1005 1200 1051 1428 1100 1316 1189 770 664 504 627 1288 957 633 305 315 573 592 376 566 675 574 702 576 384 368 399 612 352 385 710 801 748 562 457 551 932
1877 1673 1415 1381 1186 1431 1317 1463 1295 1218 1094 1218 978 1103 777 545 570 706 664 535 457 202 161 283 388 370 568 535 349 286 208 429 127 186 363 342 332 594 473 122 306 203 574
1957 1672 1332 1557 1287 1223 1081 1323 1508 1379 1162 1111 1120 968 951 804 450 562 413 217 558 557 209 180 298 279 272 208 141 101 68 28 264 253 338 277 290 476 249 186 554 564 460
1895 1899 1465 1801 1235 996 1472 1584 1098 812 940 910 983 1087 1012 874 560 323 392 215 296 637 407 173 73 91 31 61 186 83 65 19 22 131 77 82 184 290 302 284 426 584 618
1500 1975 1796 1729 1546 1377 1810 1713 877 662 517 914 908 1233 880 791 452 244 220 217 440 333 207 180 122 124 162 139 78 151 100 36 15 8 65 43 111 96 83 140 153 172 290
1636 1751 1773 1717 1488 1679 2094 1175 1032 1051 752 611 870 941 938 590 483 440 301 200 279 413 243 187 134 95 99 39 19 84 123 139 66 2 2 0 100 50 21 40 72 116 238
1692 1775 1745 1706 1793 2284 2211 1559 1608 991 765 721 654 732 1009 836 577 546 139 188 337 349 186 150 114 124 148 146 170 169 130 116 53 11 12 23 45 32 57 74 25 101 88
CIN
-65 -20 -0 -0 -0 -0 -0 -0 -1 -5 -4 -4 -5 -10 -14 -7 -0 -0 -0 -4 -0 -0 -0 -0 -0 -0 -0 -3 -34 -0 -0 -2 -0 -13 -16 -6 -0 -0 -0 -0 -9 -0 -4
-113 -19 -0 -0 -0 -0 -0 -0 -0 -0 -2 -5 -0 -0 -0 -0 -0 -0 -0 -0 -0 -0 -0 -0 -0 -0 -0 -11 -59 -16 -6 -0 -0 -1 -17 -13 -15 -3 -0 -0 -0 -1 -0
-103 -46 -2 -0 -0 -0 -0 -0 -0 -0 -6 -2 -0 -0 -0 -0 -0 -0 -0 -0 -0 -0 -0 -0 -0 -0 -0 -10 -24 -7 -0 -2 -0 -7 -22 -0 -2 -0 -15 -8 -2 -21 -0
-159 -79 -35 -0 -0 -0 -0 -0 -0 -0 -10 -0 -0 -0 -0 -0 -0 -0 -0 -0 -0 -0 -0 -0 -0 -0 -0 -6 -22 -9 -5 -7 -4 -1 -15 -0 -0 -4 -0 -0 -0 -6 -3
-134 -111 -39 -0 -0 -0 -0 -0 -0 -0 -0 -0 -3 -0 -0 -0 -1 -0 -0 -0 -0 -0 -0 -0 -0 -0 -0 -15 -24 -22 -8 -9 -9 -9 -22 -0 -45 -0 -1 -0 -1 -9 -1
-148 -127 -22 -0 -0 -0 -0 -0 -0 -0 -0 -0 -0 -0 -1 -0 -0 -0 -0 -0 -0 -0 -0 -0 -0 -0 -0 -10 -29 -31 -28 -17 -20 -19 -17 -70 -54 -23 -6 -0 -0 -7 -3
-117 -95 -9 -1 -0 -0 -0 -0 -0 -0 -0 -0 -0 -5 -3 -2 -0 -0 -0 -0 -0 -0 -0 -0 -0 -0 -5 -20 -30 -32 -28 -34 -34 -9 -10 -0 -54 -5 -1 -0 -0 -24 -3
-199 -55 -31 -0 -0 -0 -0 -0 -0 -0 -0 -0 -0 -6 -14 -5 -1 -0 -0 -0 -0 -0 -1 -0 -0 -0 -0 -8 -30 -33 -42 -54 -36 -13 -100 -0 -64 -17 -13 -1 -14 -10 -0
-84 -84 -2 -0 -6 -0 -0 -1 -0 -0 -0 -0 -0 -0 -1 -4 -0 -0 -0 -0 -0 -1 -0 -0 -0 -0 -0 -31 -50 -48 -51 -56 -49 -8 -30 -120 -45 -28 -27 -8 -25 -34 -27
-204 -0 -112 -18 -7 -8 -3 -0 -0 -0 -0 -0 -0 -0 -0 -7 -2 -0 -0 -0 -0 -0 -0 -0 -0 -0 -0 -26 -45 -52 -44 -53 -70 -4 -13 -18 -50 -49 -99 -37 -11 -0 -3
-6 -13 -4 -49 -41 -15 -4 -4 -1 -0 -0 -0 -1 -0 -2 -15 -8 -9 -10 -3 -1 -0 -0 -0 -0 -0 -2 -24 -34 -37 -45 -74 -62 -17 -26 -74 -42 -14 -59 -85 -51 -42 -2
-4 -4 -15 -96 -38 -30 -19 -10 -7 -26 -4 -1 -1 -6 -15 -15 -17 -20 -13 -0 -2 -0 -0 -0 -0 -0 -5 -30 -43 -50 -71 -83 -25 -56 -15 -58 -45 -7 -41 -44 -30 -5 -38
-11 -25 -23 -20 -134 -126 -73 -26 -9 -21 -18 -17 -10 -15 -25 -34 -7 -24 -20 -10 -5 -3 -8 -1 -2 -1 -16 -45 -50 -67 -96 -103 -42 -25 -41 -77 -48 -14 -32 -42 -33 -29 -13
-41 -26 -39 -84 -173 -196 -184 -40 -27 -26 -29 -19 -15 -14 -20 -19 -15 -14 -29 -29 -26 -17 -24 -21 -28 -20 -31 -32 -43 -42 -66 -69 -123 -23 -64 -59 -52 -34 -21 -47 -42 -37 -31
-68 -48 -53 -40 -132 -102 -50 -85 -36 -32 -28 -34 -49 -30 -41 -31 -21 -22 -26 -48 -40 -43 -25 -12 -35 -43 -36 -37 -45 -62 -74 -47 -20 -80 -111 -42 -47 -36 -29 -31 -37 -40 -21
-120 -111 -19 -114 -144 -110 -93 -46 -59 -60 -40 -33 -31 -56 -35 -36 -37 -31 -41 -29 -17 -64 -36 -45 -16 -22 -28 -43 -23 -60 -26 -25 -38 -37 -61 -83 -46 -53 -31 -25 -20 -18 -16
-109 -77 -82 -102 -116 -58 -43 -50 -67 -38 -66 -61 -16 -24 -31 -34 -39 -27 -17 -32 -40 -40 -32 -37 -39 -51 -27 -48 -38 -53 -39 -34 -55 -52 -83 -98 -63 -48 -48 -35 -27 -20 -13
-133 -115 -83 -73 -83 -118 -123 -67 -30 -27 -24 -22 -24 -44 -185 -51 -45 -25 -51 -10 -25 -59 -35 -6 -46 -26 -48 -32 -21 -35 -32 -54 -61 -41 -33 -64 -75 -82 -62 -40 -40 -23 -13
-129 -102 -73 -106 -123 -137 -101 -47 -23 -43 -61 -44 -33 -128 -103 -57 -30 -45 -62 -19 -99 -20 -49 -17 -28 -41 -27 -34 -15 -39 -35 -52 -43 -39 -33 -34 -46 -74 -56 -95 -52 -34 -57
-93 -118 -119 -96 -126 -88 -88 -58 -36 -7 -25 -12 -8 -31 -32 -43 -47 -22 -55 -27 -59 -21 -14 -32 -19 -18 -32 -39 -60 -28 -23 -47 -41 -49 -28 -38 -66 -52 -54 -28 -57 -62 -50
-62 -64 -101 -135 -131 -79 -64 -28 -37 -24 -35 -29 -34 -23 -26 -38 -31 -29 -34 -35 -48 -102 -19 -30 -47 -43 -22 -17 -20 -23 -19 -32 -23 -31 -30 -40 -30 -118 -150 -95 -33 -27 -51
-96 -111 -143 -139 -132 -104 -109 -50 -19 -16 -17 -19 -22 -30 -30 -18 -12 -31 -28 -73 -62 -61 -82 -69 -42 -22 -25 -28 -13 -40 -34 -37 -44 -41 -54 -65 -47 -39 -32 -21 -19 -10 -19
-176 -172 -201 -125 -154 -180 -86 -28 -46 -66 -31 -37 -30 -20 -11 -8 -6 -20 -23 -58 -50 -24 -51 -74 -81 -58 -43 -51 -23 -13 -15 -33 -58 -77 -66 -45 -35 -18 -15 -21 -21 -20 -18
-266 -155 -145 -123 -122 -114 -33 -8 -67 -83 -66 -36 -32 -13 -12 -13 -17 -47 -50 -32 -12 -22 -27 -55 -69 -53 -32 -42 -35 -25 -23 -6 -0 -11 -44 -29 -54 -43 -24 -19 -21 -48 -31
-246 -203 -168 -136 -139 -96 -7 -66 -54 -34 -49 -52 -24 -25 -19 -25 -23 -18 -30 -45 -44 -6 -41 -38 -49 -45 -27 -29 -72 -32 -41 -7 -7 -14 -44 -10 -36 -22 -43 -37 -16 -32 -20
-181 -207 -179 -144 -103 -26 -12 -24 -13 -15 -16 -46 -36 -26 -20 -28 -27 -9 -44 -39 -32 -18 -35 -27 -33 -25 -23 -13 -12 -10 -4 -7 -21 -26 -20 -58 -48 -52 -23 -29 -38 -9 -12
Wind_Speed
4 10 12 14 12 12 14 12 11 11 12 13 13 12 14 16 20 18 16 11 8 7 4 6 7 8 9 6 6 3 1 2 3 4 2 4 5 5 4 4 4 2 6
15 10 13 14 12 12 12 13 13 10 10 12 12 15 15 15 17 15 13 10 10 8 6 4 5 8 7 6 4 4 3 3 2 4 5 2 3 6 5 4 nan 3 5
10 14 14 11 11 10 9 11 13 12 10 9 10 12 16 15 14 13 11 9 10 8 7 4 6 7 5 5 3 3 2 2 2 3 4 nan nan 4 nan 4 5 7 5
14 9 13 13 10 9 6 9 10 11 11 10 9 8 12 15 12 10 9 11 10 9 6 2 6 5 3 2 3 4 3 3 4 6 3 nan nan 2 1 2 2 6 5
10 13 13 16 14 10 6 5 7 9 10 9 8 8 7 14 11 10 10 9 10 7 6 5 6 2 1 1 5 5 4 5 7 8 9 nan nan nan 2 2 2 4 2
30 17 22 19 14 14 8 4 5 6 9 8 7 5 5 7 11 11 9 10 8 6 5 6 4 1 2 3 5 7 9 8 10 11 nan nan 2 5 3 4 4 4 5
12 18 17 20 19 12 13 5 4 4 7 6 7 5 3 3 11 12 10 9 7 5 6 5 4 3 2 5 7 9 12 16 14 4 nan nan 3 6 6 7 6 5 5
17 25 28 19 19 15 9 11 4 3 6 6 4 6 7 5 11 11 9 6 7 6 6 5 4 3 2 6 8 9 12 14 13 11 2 nan 6 8 9 8 7 7 7
21 39 38 6 13 14 10 9 5 2 2 6 5 4 6 4 2 9 8 9 6 5 4 4 5 2 3 6 10 8 11 14 11 6 2 nan 8 10 10 8 8 7 7
46 nan 48 13 4 8 3 7 6 3 2 3 4 5 6 5 3 2 7 9 6 4 5 5 5 5 3 6 10 12 13 15 11 10 4 3 11 10 12 11 10 8 10
47 43 nan 27 2 3 2 1 2 6 6 5 3 6 4 5 3 1 2 4 7 4 5 5 5 4 3 5 8 9 13 12 14 10 2 9 10 11 12 12 11 12 11
42 39 37 35 7 6 9 3 2 2 2 2 2 1 3 2 4 2 2 4 4 5 5 5 7 4 4 9 9 8 8 9 nan 8 7 6 8 12 13 14 12 13 13
38 32 34 35 27 8 1 6 5 3 3 2 3 4 1 4 5 7 8 10 10 6 11 9 10 11 9 9 8 8 8 7 nan 7 6 11 12 12 14 18 16 14 14
37 33 34 29 26 20 11 5 3 3 4 6 6 6 5 5 6 7 8 9 13 13 11 10 12 11 10 9 8 7 8 10 11 11 8 11 13 14 15 21 21 19 19
38 37 36 34 28 23 18 9 4 3 5 7 8 8 7 6 6 7 8 9 11 14 14 12 12 12 11 10 12 12 12 12 14 14 14 15 15 14 17 19 23 23 22
41 40 38 34 31 26 17 14 7 4 4 5 8 8 8 8 8 7 7 8 9 11 15 15 14 14 14 16 17 15 14 13 14 19 17 17 18 20 18 21 21 23 21
41 40 39 34 30 27 24 15 11 8 4 6 9 13 9 10 8 10 9 9 9 14 15 17 15 16 19 20 18 20 16 16 19 19 23 20 20 21 23 22 22 20 17
40 40 38 36 29 23 21 19 12 8 6 3 7 11 12 10 11 12 14 24 19 16 14 17 20 20 16 22 22 21 19 20 16 17 20 22 21 23 21 20 20 21 19
38 38 36 38 35 26 21 20 20 17 9 4 5 8 11 12 14 15 22 19 31 21 17 18 21 19 16 15 19 19 18 20 20 23 21 20 20 21 22 18 17 19 26
32 34 36 37 35 27 22 19 18 18 16 10 9 11 9 14 14 17 22 21 23 12 18 21 24 20 18 16 19 19 18 20 22 21 18 22 27 23 24 25 30 14 23
30 34 36 38 33 23 17 18 18 20 18 14 10 14 12 11 12 20 23 23 22 20 23 24 26 20 20 21 21 20 20 22 19 19 21 21 23 21 24 27 24 20 22
30 32 34 36 28 20 17 15 17 18 18 19 16 12 11 12 11 15 18 23 25 24 24 25 25 24 19 20 19 22 nan nan 22 24 23 23 25 25 26 21 20 20 20
30 33 34 32 22 20 19 14 14 14 13 12 12 12 10 11 10 15 16 18 25 27 22 27 nan nan nan nan 16 nan nan nan nan 24 nan nan 25 30 26 26 25 21 22
31 31 28 22 22 18 18 19 19 19 21 18 16 14 12 13 11 10 13 16 27 28 27 23 22 26 25 20 nan 22 23 nan nan nan nan nan 25 nan nan 24 25 23 23
31 30 25 24 22 20 19 20 20 20 21 19 16 18 13 11 14 11 11 15 12 19 23 21 21 nan nan nan nan nan 24 23 nan nan nan nan 30 nan nan nan nan 24 23
29 27 25 24 22 21 21 21 21 20 19 18 17 17 13 10 11 9 11 12 13 13 10 17 17 21 21 22 22 24 25 22 nan nan nan nan nan nan nan nan nan 22 nan
Wind_Direction
358 323 318 321 315 300 297 291 289 285 274 266 251 237 234 230 223 225 241 228 213 210 212 215 226 235 228 222 216 178 258 284 279 265 251 200 180 157 67 300 309 40 340
346 309 301 316 312 305 299 298 297 290 294 279 266 249 238 234 230 227 231 225 221 223 231 203 208 230 226 219 222 164 194 209 259 285 294 291 164 160 43 326 nan 0 299
320 312 294 297 305 298 290 293 293 295 301 293 276 265 249 238 232 222 232 222 226 233 235 235 201 227 232 228 193 150 157 32 70 349 319 nan nan 191 nan 325 349 323 315
295 306 299 290 285 273 278 291 292 298 301 294 286 271 252 240 228 226 223 228 222 225 241 205 214 217 228 208 145 157 132 123 59 30 111 nan nan 224 231 282 307 337 348
318 316 308 302 294 272 253 273 286 291 295 288 288 282 279 224 219 225 223 230 232 230 254 202 220 195 251 21 118 143 153 120 72 66 76 nan nan nan 271 272 336 356 339
358 318 311 307 293 288 265 248 274 287 287 295 287 288 279 224 231 236 230 232 246 243 238 211 213 234 78 57 106 158 149 126 113 112 nan nan 172 312 1 359 311 337 329
314 333 314 301 298 288 294 265 268 281 289 298 301 306 286 261 237 237 233 236 243 242 243 195 191 186 109 109 113 144 156 146 136 156 nan nan 54 347 335 334 340 345 337
325 2 332 318 286 293 288 290 275 310 306 292 300 306 296 319 213 222 238 233 239 220 226 204 177 150 148 123 116 144 152 138 160 152 39 nan 11 0 349 350 359 4 2
284 10 3 320 275 286 294 295 322 24 353 301 283 283 306 343 195 220 236 238 232 222 193 219 182 188 137 121 121 145 143 147 162 157 121 nan 5 1 348 351 3 0 7
357 nan 13 347 225 234 204 301 324 341 355 276 292 294 304 301 337 265 220 220 230 220 209 210 194 189 156 116 131 147 155 148 147 144 123 94 349 356 340 347 354 355 6
7 23 nan 34 57 220 222 222 340 344 354 349 333 323 295 193 168 145 188 239 234 244 229 202 222 187 185 123 116 135 140 159 151 167 189 358 349 351 343 338 348 350 347
11 25 24 28 41 203 187 231 163 212 196 285 320 286 244 213 187 218 205 30 257 253 248 223 204 217 196 193 184 150 182 164 nan 195 204 326 339 338 339 325 333 341 342
10 22 25 29 34 41 275 181 169 185 210 234 305 306 294 190 214 219 225 213 207 217 218 219 219 211 213 205 205 202 178 191 nan 207 279 337 327 333 336 322 328 330 331
9 23 25 26 30 37 39 343 237 235 206 226 242 276 260 216 219 232 228 224 232 211 221 222 218 216 208 220 216 227 210 207 216 232 260 307 307 324 330 325 321 328 328
11 18 22 18 23 27 35 37 314 253 221 217 222 241 243 237 223 221 239 233 211 209 206 218 220 223 223 214 239 240 227 222 216 248 253 302 307 317 316 322 327 326 322
5 8 10 14 13 18 17 29 30 289 276 266 252 241 253 251 253 240 226 235 237 228 215 223 223 225 222 221 230 237 234 235 244 260 260 276 310 309 316 322 322 323 328
357 358 2 4 7 7 14 12 14 33 352 240 260 264 257 261 239 253 227 229 230 241 236 235 238 232 233 227 224 235 240 242 240 251 267 270 281 313 320 315 313 319 321
350 352 349 354 354 4 4 9 1 312 351 328 265 254 223 252 253 247 238 227 214 223 235 244 240 242 240 233 230 230 239 248 257 261 266 277 284 286 302 307 309 309 307
349 350 351 346 350 351 3 360 2 354 330 328 316 258 243 270 266 244 241 241 228 206 220 237 240 250 244 235 237 240 250 254 255 257 270 275 276 274 279 293 307 306 298
338 342 340 344 342 349 349 358 352 351 349 319 274 269 292 258 254 246 247 250 272 219 226 234 243 238 240 239 234 232 242 254 254 258 262 266 264 271 261 264 253 277 299
335 340 343 341 345 345 348 353 353 348 349 339 310 310 306 299 255 240 241 252 249 241 238 229 234 237 231 243 240 237 237 256 256 259 260 261 268 271 270 256 283 273 280
338 340 342 341 348 349 359 357 355 345 340 330 314 300 296 294 295 277 235 233 225 229 235 238 242 238 236 245 244 247 nan nan 245 247 252 256 262 265 273 282 282 284 290
332 341 342 345 357 359 2 359 354 341 331 326 325 297 289 295 290 304 312 229 221 223 233 238 nan nan nan nan 243 nan nan nan nan 253 nan nan 252 258 264 262 257 266 279
332 339 343 355 356 360 355 345 348 349 359 358 346 312 292 281 277 307 325 301 227 230 236 239 242 254 244 245 nan 250 255 nan nan nan nan nan 254 nan nan 240 243 255 267
329 340 346 350 354 356 347 334 341 346 349 349 341 331 304 289 262 280 297 306 302 232 236 244 250 nan nan nan nan nan 243 254 nan nan nan nan 268 nan nan nan nan 249 260
325 330 341 349 355 353 340 336 337 340 343 339 347 354 334 322 276 273 283 285 281 283 275 248 243 236 244 243 250 254 260 261 nan nan nan nan nan nan nan nan nan 245 nan